Tracking 19969 objects as of 13-Nov-2019
Live streaming from Space Station
objects crossing your sky now
Track the group of recently launched Starlink satellites

ARIANE 3 DEB (SYLDA)

Track ARIANE 3 DEB (SYLDA) now!
10-day predictions


NORAD ID: 15680
Int'l Code: 1985-035D
Perigee: 318.0 km
Apogee: 7,140.1 km
Inclination: 6.8 °
Period: 168.4 minutes
Semi major axis: 10100 km
RCS: 7.2153 m2 (large)
Launch date: May 8, 1985
Source: France (FR)
Launch site: FRENCH GUIANA (FRGUI)

Note: This is SATELLITE DEBRIS
aabbcc
Your satellite tracking list
Your tracking list is empty




NASA's NSSDC Master Catalog

Two Line Element Set (TLE):
1 15680U 85035D   19316.84285695  .00017256  00000-0  15124-2 0  9994
2 15680   6.7875 164.5431 3377268 339.1902   9.8111  8.55300009599353
Source of the keplerian elements: AFSPC